sat.trackr.live / text

‹ back to catalog

HULIANWANG DIGUI-105

NORAD 66915 · 2025-285A

PAYLOAD ACTIVE UNKNOWN

§ Identity

Operator
Country
PRC
Launch date
2025-12-06
Launch site
WSC
Launch vehicle
Mass (kg)
RCS (m²)

External: N2YO · Heavens-Above · Gunter

§ Orbital elements

Epoch: 2026-09-20T10:17:12.387840Z

Period
108.33 min
Inclination
50.0045°
Eccentricity
0.0000106
Mean motion
13.29326018 rev/d
Perigee alt
1,149.2 km
Apogee alt
1,149.4 km
Semi-major
7,527.4 km
B*
2.6749e-5
RAAN
164.6442°
Arg perigee
233.0278°
Mean anomaly
127.0585°
Rev number
3,872

§ Raw data

HULIANWANG DIGUI-1051 66915U 25285A   26263.42861560 -.00000112  00000+0  26749-4 0  99962 66915  50.0045 164.6442 0000106 233.0278 127.0585 13.29326018 38725

JSON: /api/v1/satellites/66915 · /tle

For live sub-satellite position, see the globe view (requires WebGL).

§ Visibility from observer

Set your observer location to see the next 7 days of passes ≥ 10°. The values pass through the URL so the page stays shareable.

No JS? Fill the form by hand. The geolocation button needs JavaScript.